NEMO-HD (46277 NORAD) Tracking and Keplerian Element Data

This shows tracking and keplerian element data for the satellite.

Feedback or suggestion? Click here.




ElementValue
Catalog46277
NameNEMO-HD
Epoch Orbit329
Epoch Day268.87552856
Epoch Year2020
RAAN341.6036
Inclination97.4618
Eccentricity0.0001663
Argument of Perigee142.1312
Mean Anonmoly308.524
Mean Motion15.16079012
Decay Rate3.24E-06
L11 46277U 20061F 20268.87552856 .00000324 00000-0 20235-4 0 9994
L22 46277 97.4618 341.6036 0001663 142.1312 308.5240 15.16079012 3294

Live tracking and technical data element details for NEMO-HD (NORAD 46277). NEMO-HD can be tracked NOW for your location showing map with azimuth and elevation plus other details from your city location.

Track the satellite on the map from your city or location and see movement details for azimuth, elevation, latitude, longitude, range, height, and movement on the map or in text.







IsCatalogInMostPopularTable: catalog: 46277, numindb: 5
Update: records affected: 1



GetName: 46277 NEMO-HD

Hit Count: updated at: Mon, 28 Sep 2020 20:59:25 GMT